Location: Chrome
(40.5765°N, 74.2163°W)
Time: 09:18:10
(UTC+00:00)

Cosmos 2237 Rocket - Pass Details

Date: 06 December 2019
Orbit: 836 x 849 km, 71.0° (Epoch: 26 January)

Event Time Altitude Azimuth Distance (km) Brightness Sun altitude
Rises 21:50:15 0° 163° (SSE) 3,396 5.5 -4.3°
Reaches altitude 10° 21:53:13 10° 149° (SSE) 2,466 4.6 -4.8°
Maximum altitude 21:57:25 22° 101° (E) 1,785 3.5 -5.5°
Drops below altitude 10° 22:01:37 10° 52° (NE) 2,477 4.0 -6.2°
Enters shadow 22:02:54 - 45° (NE) 2,862 4.4 -6.4°
